Regional Weather Roundup
Issued by NWS

Home | Current Version | Previous Version | Text Only | Print | Product List | Glossary On
Versions: 1 2 3 4 5 6 7 8 9 10 11 12 13 14 15 16 17 18 19 20 21 22 23 24 25 26 27 28 29 30 31 32 33 34 35 36 37 38 39 40 41 42 43 44 45 46 47 48 49 50
000
ASMX46 KSGX 170010
RWRMX

MEXICAN WEATHER ROUNDUP
NATIONAL WEATHER SERVICE SAN DIEGO CA
500 PM PDT TUE SEP 16 2014

BAJA CALIFORNIA

CITY           SKY/WX    TMP DP  RH WIND       PRES   REMARKS
ENSENADA NW      N/A     89  32  13 W9        29.65S
LA PAZ           N/A    N/A N/A N/A MISG        N/A
LORETO           N/A    N/A N/A N/A MISG        N/A
MEXICALI       PTSUNNY   95  64  36 SE12      29.72F HX  97
S.J. DEL CABO  PTSUNNY   93  79  62 NW6       29.77R HX 110
TIJUANA        MOSUNNY   90  61  37 W14       29.71S

NORTHWESTERN MEXICO

CITY           SKY/WX    TMP DP  RH WIND       PRES   REMARKS
CHIHUAHUA      PTSUNNY   77  57  50 E7        30.08F
CULIACAN       CLOUDY    91  77  62 W6        29.81F HX 105
GUAYMAS        CLOUDY    86  79  79 S18       29.68R HX  99
HERMOSILLO     CLOUDY    79  75  89 SE8       29.77S
JUAREZ         CLOUDY    81  63  54 E7        30.03F
LOS MOCHIS     CLOUDY    82  73  74 SW5       29.80S
OBREGON        CLOUDY    81  75  83 S10       29.74S

NORTHEASTERN MEXICO

CITY           SKY/WX    TMP DP  RH WIND       PRES   REMARKS
MATAMOROS      MOCLDY    86  75  70 SE12      29.95S HX  95
MONTERREY      MOCLDY    82  68  61 E6        29.95S
NUEVO LAREDO   MOCLDY    82  75  78 CALM      29.93R
PIEDRAS NEGRAS PTCLDY    90  73  58 W7        29.94F HX  98
REYNOSA        MOCLDY    84  70  61 SW2       29.92R
SALTILLO       MOCLDY    70  63  78 N14       30.16F
TORREON        PTSUNNY   86  57  37 NE2       30.00F
VICTORIA       PTCLDY    84  72  65 SE3       29.94R

WESTERN MEXICO

CITY           SKY/WX    TMP DP  RH WIND       PRES   REMARKS
AGUASCALIENTES MOSUNNY   77  46  33 NE13      30.17S
DURANGO        PTSUNNY   77  52  41 NE9       30.14F
GUADALAJARA    MOSUNNY   79  55  44 CALM      30.07S
MANZANILLO     PTSUNNY   88  77  70 NW7       29.77F HX 100
MAZATLAN       PTSUNNY   82  75  78 W12       29.76F
PTO. VALLARTA  CLOUDY    86  77  74 E7        29.80R THUNDER HX  97
URUAPAN        PTSUNNY   73  61  64 CALM      30.11R
ZACATECAS      MOSUNNY   73  48  40 E12       30.22F

CENTRAL MEXICO

CITY           SKY/WX    TMP DP  RH WIND       PRES   REMARKS
CUERNAVACA     CLOUDY    70  63  78 NE5       30.09R
LEON           PTSUNNY   73  54  49 NE9       30.19R
MEXICO CITY    CLOUDY    68  50  52 S6        30.26R
MORELIA        MOCLDY    72  61  68 S6        30.14R
POZA RICA      MOCLDY    82  75  78 NE7       29.95R
PUEBLA         CLOUDY    68  63  83 SE16      30.31R
QUERETARO      MOCLDY    70  54  56 E12       30.23R
S. LUIS POTOSI MOCLDY    70  54  56 E10       30.20S
TAMPICO        MOCLDY    81  73  78 NE12      29.93F
TOLUCA         CLOUDY    61  46  59 S15       30.33R
VERACRUZ       CLOUDY    79  73  83 N3        29.92R

SOUTHERN MEXICO

CITY           SKY/WX    TMP DP  RH WIND       PRES   REMARKS
ACAPULCO       CLOUDY    84  75  74 E15       29.84R
B. DE HUATULCO MOCLDY    75  64  69 E12       29.95S
MINATITLAN       N/A    N/A N/A N/A MISG        N/A
OAXACA         CLOUDY    72  61  68 S6        30.17R
PTO. ESCONDIDO CLOUDY    82  73  74 E21       30.00S
TAPACHULA      CLOUDY    82  77  83 CALM      29.90S
TUX. GUTIERREZ CLOUDY    79  72  78 N3        29.98R
VILLAHERMOSA   CLOUDY    79  73  83 CALM      29.91S
ZIHUATANEJO    PTSUNNY   84  73  70 NE9       29.83R

YUCATAN PENINSULA

CITY           SKY/WX    TMP DP  RH WIND       PRES   REMARKS
CAMPECHE       MOCLDY    82  75  78 SE9       29.88F
CANCUN         PTCLDY    84  77  79 E5        29.95S
CHETUMAL       MOCLDY    86  79  79 E12       29.90R HX  99
C. DEL CARMEN  CLOUDY    82  75  78 NE9       29.90S
COZUMEL        PTCLDY    79  75  89 E3        29.95F
MERIDA         CLOUDY    79  68  69 NE5       29.93R

$$




USA.gov is the U.S. government's official web portal to all federal, state and local government web resources and services.